This is the latest recevied weather packets stored in our database for station/object SQ7IQO. If no packets are shown the sender has not sent any weather packets the latest 10 day(s).
| Time | Temp. | Humidity | Pressure | Rain* | Wind** | Luminosity | Snow |
|---|---|---|---|---|---|---|---|
| 1787570635 | 17.22° C | 73% | 1022.5 hPa | 0 mm | 2.24 m/s, ° | - | - |
| 1787570575 | 16.67° C | 74% | 1022.5 hPa | 0 mm | 0.89 m/s, ° | - | - |
| 1787570515 | 17.22° C | 73% | 1022.4 hPa | 0 mm | 1.34 m/s, ° | - | - |
| 1787570455 | 17.22° C | 74% | 1022.4 hPa | 0 mm | 1.34 m/s, ° | - | - |
| 1787570395 | 17.78° C | 74% | 1022.5 hPa | 0 mm | 0.89 m/s, ° | - | - |
| 1787570335 | 17.78° C | 73% | 1022.4 hPa | 0 mm | 0.89 m/s, ° | - | - |
| 1787570275 | 17.78° C | 76% | 1022.4 hPa | 0 mm | 1.34 m/s, ° | - | - |
| 1787570215 | 16.67° C | 77% | 1022.4 hPa | 0 mm | 0.45 m/s, ° | - | - |
| 1787570155 | 17.22° C | 76% | 1022.5 hPa | 0 mm | 1.34 m/s, ° | - | - |
| 1787570095 | 17.78° C | 75% | - | 0 mm | 0.89 m/s, ° | - | - |
| 1787570035 | 17.78° C | 76% | 1022.5 hPa | 0 mm | 0.45 m/s, ° | - | - |
| 1787569975 | 17.78° C | 77% | 1022.4 hPa | 0 mm | 0.45 m/s, ° | - | - |
| 1787569915 | 17.22° C | 77% | 1022.4 hPa | 0 mm | 0.45 m/s, ° | - | - |
| 1787569855 | 17.22° C | 76% | 1022.5 hPa | 0 mm | 0.89 m/s, ° | - | - |
| 1787569795 | 17.22° C | 80% | 1022.5 hPa | 0 mm | 0.45 m/s, ° | - | - |
| 1787569735 | 16.67° C | 80% | 1018.2 hPa | 0 mm | 0.89 m/s, ° | - | - |
| 1787569675 | 16.11° C | 82% | 1022.4 hPa | 0 mm | 0.45 m/s, ° | - | - |
| 1787569615 | 15.56° C | 82% | 1022.5 hPa | 0 mm | 0.45 m/s, ° | - | - |
| 1787569555 | 15.56° C | 82% | 1022.5 hPa | 0 mm | 0.89 m/s, ° | - | - |
| 1787569495 | 16.11° C | 81% | 1022.5 hPa | 0 mm | 1.34 m/s, ° | - | - |
| 1787569435 | 16.11° C | 83% | 1022.4 hPa | 0 mm | 1.34 m/s, ° | - | - |
| 1787569375 | 15.56° C | 82% | 1022.4 hPa | 0 mm | 0.45 m/s, ° | - | - |
| 1787569315 | 15.56° C | 84% | 1022.4 hPa | 0 mm | 0.89 m/s, ° | - | - |
| 1787569255 | 15.56° C | 84% | 1022.5 hPa | 0 mm | 0.45 m/s, ° | - | - |
| 1787569195 | 15.56° C | 83% | 1022.5 hPa | 0 mm | 0.89 m/s, ° | - | - |
* Rain latest hour (hover to see other rain measurements)
** Current wind speed in m/s (hover to see current wind gust speed)